When you browse on this site, cookies collect data to enhance your experience and personalize the content and advertising you see.
Visit our Privacy Policy to learn more. By continuing to use the site, you agree to this use of cookies and data.
  • In Spain
  • List of Countries
  • For 7 days
  • Water Temperature
  • Weather Map
  • Weather Widgets
  • user-avatar
    Login

    Hourly Weather Hrazdan

    Today, 7 April, Tuesday

    Time Temperature Precipitation Wind Pressure Humidity
    00:00 +4°C° 0.3 mm 1 mps 612 mmHg 95%
    01:00 +3°C° 0.4 mm 2 mps 612 mmHg 95%
    02:00 +3°C° 0.4 mm 2 mps 612 mmHg 95%
    03:00 +2°C° 0 mm 2 mps 612 mmHg 95%
    04:00 +2°C° 0.5 mm 2 mps 612 mmHg 94%
    05:00 +1°C° 0.5 mm 3 mps 612 mmHg 93%
    06:00 +1°C° 0.5 mm 3 mps 612 mmHg 93%
    07:00 0°C° 0.3 mm 3 mps 612 mmHg 91%
    08:00 0°C° 0.3 mm 3 mps 612 mmHg 90%
    09:00 -1°C° 0 mm 4 mps 612 mmHg 88%
    10:00 -1°C° 0.3 mm 4 mps 612 mmHg 86%
    11:00 -1°C° 0.3 mm 4 mps 613 mmHg 84%
    12:00 0°C° 0.3 mm 4 mps 613 mmHg 81%
    13:00 0°C° 0.1 mm 4 mps 613 mmHg 81%
    14:00 +1°C° 0.1 mm 3 mps 613 mmHg 80%
    15:00 +1°C° 0.1 mm 3 mps 612 mmHg 79%
    16:00 0°C° 0.1 mm 3 mps 612 mmHg 80%
    17:00 -1°C° 0.1 mm 3 mps 612 mmHg 81%
    18:00 -2°C° 0.1 mm 3 mps 612 mmHg 83%
    19:00 -4°C° 0 mm 3 mps 612 mmHg 83%
    20:00 -5°C° 0 mm 3 mps 612 mmHg 84%
    21:00 -6°C° 0 mm 3 mps 613 mmHg 85%
    22:00 -6°C° 0 mm 3 mps 613 mmHg 84%
    23:00 -6°C° 0 mm 3 mps 613 mmHg 83%

    Tomorrow, 8 April, Wednesday

    Time Temperature Precipitation Wind Pressure Humidity
    00:00 -6°C° 0 mm 3 mps 613 mmHg 83%
    01:00 -6°C° 0 mm 3 mps 613 mmHg 82%
    02:00 -7°C° 0 mm 3 mps 613 mmHg 82%
    03:00 -6°C° 0 mm 2 mps 614 mmHg 81%
    04:00 -6°C° 0 mm 2 mps 614 mmHg 81%
    05:00 -6°C° 0 mm 2 mps 614 mmHg 81%
    06:00 -6°C° 0 mm 2 mps 614 mmHg 81%
    07:00 -5°C° 0 mm 2 mps 615 mmHg 78%
    08:00 -4°C° 0 mm 2 mps 615 mmHg 75%
    09:00 -4°C° 0 mm 3 mps 616 mmHg 71%
    10:00 -2°C° 0 mm 3 mps 616 mmHg 68%
    11:00 -1°C° 0 mm 3 mps 616 mmHg 64%
    12:00 0°C° 0 mm 3 mps 616 mmHg 61%
    13:00 0°C° 0 mm 3 mps 616 mmHg 62%
    14:00 +1°C° 0 mm 3 mps 615 mmHg 62%
    15:00 +1°C° 0 mm 3 mps 615 mmHg 63%
    16:00 +1°C° 0 mm 2 mps 615 mmHg 68%
    17:00 -1°C° 0 mm 2 mps 614 mmHg 73%
    18:00 -2°C° 0 mm 2 mps 614 mmHg 78%
    19:00 -3°C° 0 mm 2 mps 614 mmHg 80%
    20:00 -4°C° 0 mm 2 mps 614 mmHg 81%
    21:00 -4°C° 0 mm 2 mps 614 mmHg 83%
    22:00 -2°C° 0 mm 1 mps 614 mmHg 82%
    23:00 -2°C° 0 mm 1 mps 613 mmHg 81%

    Day after tomorrow, 9 April, Thursday

    Time Temperature Precipitation Wind Pressure Humidity
    00:00 -2°C° 0 mm 1 mps 613 mmHg 80%
    01:00 -2°C° 0 mm 1 mps 613 mmHg 80%
    02:00 -2°C° 0 mm 1 mps 612 mmHg 80%
    03:00 -3°C° 0 mm 0 mps 611 mmHg 79%
    04:00 -3°C° 0 mm 0 mps 611 mmHg 77%
    05:00 -2°C° 0 mm 1 mps 611 mmHg 75%
    06:00 -1°C° 0 mm 1 mps 611 mmHg 72%
    07:00 +1°C° 0 mm 1 mps 611 mmHg 68%
    08:00 +1°C° 0 mm 2 mps 611 mmHg 65%
    09:00 +3°C° 0 mm 2 mps 611 mmHg 61%
    10:00 +4°C° 0 mm 2 mps 611 mmHg 59%
    11:00 +6°C° 0 mm 2 mps 611 mmHg 58%
    12:00 +7°C° 0 mm 2 mps 611 mmHg 57%
    13:00 +7°C° 0 mm 2 mps 611 mmHg 58%
    14:00 +7°C° 0 mm 2 mps 610 mmHg 60%
    15:00 +7°C° 0 mm 2 mps 610 mmHg 61%
    16:00 +7°C° 0 mm 2 mps 609 mmHg 65%
    17:00 +7°C° 0 mm 1 mps 609 mmHg 70%
    18:00 +6°C° 0 mm 1 mps 609 mmHg 74%
    19:00 +5°C° 0 mm 1 mps 608 mmHg 77%
    20:00 +4°C° 0 mm 1 mps 608 mmHg 79%
    21:00 +3°C° 0 mm 1 mps 608 mmHg 82%
    22:00 +3°C° 0 mm 1 mps 608 mmHg 83%
    23:00 +2°C° 0 mm 1 mps 608 mmHg 84%

    10 April, Friday

    Time Temperature Precipitation Wind Pressure Humidity
    00:00 +2°C° 0 mm 1 mps 608 mmHg 86%
    01:00 +2°C° 0 mm 1 mps 607 mmHg 86%
    02:00 +2°C° 0 mm 1 mps 607 mmHg 87%
    03:00 +2°C° 0 mm 1 mps 607 mmHg 87%
    04:00 +2°C° 0 mm 1 mps 607 mmHg 87%
    05:00 +2°C° 0 mm 1 mps 607 mmHg 86%
    06:00 +2°C° 0 mm 1 mps 607 mmHg 85%
    07:00 +4°C° 0 mm 1 mps 607 mmHg 79%
    08:00 +6°C° 0 mm 1 mps 608 mmHg 73%
    09:00 +7°C° 0 mm 1 mps 608 mmHg 66%
    10:00 +8°C° 0.2 mm 1 mps 608 mmHg 66%
    11:00 +8°C° 0.2 mm 2 mps 608 mmHg 65%
    12:00 +9°C° 0.2 mm 2 mps 608 mmHg 64%
    13:00 +8°C° 0.4 mm 2 mps 607 mmHg 66%
    14:00 +8°C° 0.4 mm 2 mps 607 mmHg 67%
    15:00 +9°C° 0.4 mm 1 mps 606 mmHg 68%
    16:00 +7°C° 0.1 mm 2 mps 606 mmHg 73%
    17:00 +6°C° 0.1 mm 2 mps 606 mmHg 78%
    18:00 +5°C° 0.1 mm 2 mps 606 mmHg 83%
    19:00 +4°C° 0 mm 2 mps 606 mmHg 85%
    20:00 +4°C° 0 mm 2 mps 606 mmHg 86%
    21:00 +2°C° 0 mm 3 mps 606 mmHg 88%
    22:00 +3°C° 0.1 mm 2 mps 606 mmHg 89%
    23:00 +3°C° 0.1 mm 2 mps 606 mmHg 90%

    11 April, Saturday

    Time Temperature Precipitation Wind Pressure Humidity
    00:00 +2°C° 0.1 mm 2 mps 606 mmHg 92%
    01:00 +2°C° 0.9 mm 2 mps 606 mmHg 93%
    02:00 +2°C° 0.9 mm 2 mps 605 mmHg 95%
    03:00 +1°C° 0.9 mm 2 mps 605 mmHg 96%
    04:00 +1°C° 1.1 mm 2 mps 605 mmHg 96%
    05:00 +2°C° 1.1 mm 1 mps 605 mmHg 96%
    06:00 +2°C° 1.1 mm 1 mps 605 mmHg 96%
    07:00 +2°C° 0.8 mm 1 mps 605 mmHg 96%
    08:00 +3°C° 0.8 mm 1 mps 605 mmHg 96%
    09:00 +3°C° 0.8 mm 1 mps 605 mmHg 96%
    10:00 +2°C° 0.5 mm 2 mps 605 mmHg 96%
    11:00 +2°C° 0.5 mm 2 mps 605 mmHg 96%
    12:00 +2°C° 0.5 mm 2 mps 605 mmHg 95%
    13:00 +3°C° 0.2 mm 2 mps 605 mmHg 93%
    14:00 +3°C° 0.2 mm 2 mps 605 mmHg 91%
    15:00 +3°C° 0.2 mm 2 mps 605 mmHg 89%
    16:00 +3°C° 0 mm 2 mps 605 mmHg 89%
    17:00 +2°C° 0 mm 2 mps 605 mmHg 88%
    18:00 +2°C° 0 mm 2 mps 605 mmHg 88%
    19:00 +1°C° 0 mm 2 mps 606 mmHg 89%
    20:00 +1°C° 0 mm 2 mps 606 mmHg 89%
    21:00 -1°C° 0 mm 2 mps 606 mmHg 90%
    22:00 -1°C° 0 mm 2 mps 607 mmHg 90%
    23:00 -2°C° 0 mm 2 mps 607 mmHg 89%

    12 April, Sunday

    Time Temperature Precipitation Wind Pressure Humidity
    00:00 0°C° 0 mm 1 mps 607 mmHg 89%
    01:00 0°C° 0 mm 1 mps 607 mmHg 88%
    02:00 -1°C° 0 mm 1 mps 607 mmHg 87%
    03:00 -1°C° 0 mm 1 mps 607 mmHg 86%
    04:00 -1°C° 0 mm 1 mps 607 mmHg 84%
    05:00 -1°C° 0 mm 1 mps 607 mmHg 81%
    06:00 -2°C° 0 mm 1 mps 608 mmHg 79%
    07:00 0°C° 0 mm 1 mps 609 mmHg 74%
    08:00 +2°C° 0 mm 1 mps 609 mmHg 68%
    09:00 +3°C° 0 mm 1 mps 610 mmHg 63%
    10:00 +5°C° 0 mm 1 mps 610 mmHg 60%
    11:00 +6°C° 0 mm 1 mps 610 mmHg 57%
    12:00 +7°C° 0 mm 1 mps 611 mmHg 54%
    13:00 +7°C° 0 mm 1 mps 610 mmHg 53%
    14:00 +7°C° 0 mm 1 mps 610 mmHg 53%
    15:00 +7°C° 0 mm 1 mps 610 mmHg 52%
    16:00 +7°C° 0 mm 1 mps 610 mmHg 59%
    17:00 +6°C° 0 mm 1 mps 610 mmHg 66%
    18:00 +5°C° 0 mm 1 mps 610 mmHg 72%
    19:00 +3°C° 0 mm 2 mps 610 mmHg 77%
    20:00 +2°C° 0 mm 2 mps 610 mmHg 82%
    21:00 +1°C° 0 mm 2 mps 610 mmHg 86%
    22:00 +1°C° 0 mm 2 mps 610 mmHg 85%
    23:00 -1°C° 0 mm 2 mps 611 mmHg 84%
    Show more